Location: Evergreen Manor
(41.4083°N, 81.4939°W)
Time: 23:22:15
(UTC+00:00)

STARLINK 1043 - Pass Details

Date: 11 December 2019
Orbit: 548 x 551 km, 53.0° (Epoch: 26 January)

Event Time Altitude Azimuth Distance (km) Brightness Sun altitude
Exits shadow 09:47:11 23° 73° (ENE) 1,227 5.9 -31.9°
Drops below altitude 10° 09:49:06 10° 92° (E) 1,842 7.2 -31.5°
Enters shadow 10:48:21 -65° 306° (NW) 12,203 10.4 -20.5°
Maximum altitude 11:25:05 48° 224° (SW) 734 4.0 -13.9°
